Regional Weather Roundup
Issued by NWS

Home | Current Version | Previous Version | Graphics & Text | Print | Product List | Glossary On
Versions: 1 2 3 4 5 6 7 8 9 10 11 12 13 14 15 16 17 18 19 20 21 22 23 24 25 26 27 28 29 30 31 32 33 34 35 36 37 38 39 40 41 42 43 44 45 46 47 48 49 50
000
ASUS43 KDMX 272101
RWRIA

WEATHER ROUNDUP FOR IOWA
NATIONAL WEATHER SERVICE DES MOINES IA
400 PM CDT TUE JUN 27 2017

NOTE: "FAIR" INDICATES FEW OR NO CLOUDS BELOW 12,000 FEET WITH NO
SIGNIFICANT WEATHER AND/OR OBSTRUCTIONS TO VISIBILITY.

* - THESE STATIONS ARE NOT NWS STATIONS...THUS NOT UNDER NWS
QUALITY CONTROL.  THEY ALSO DO NOT REPORT WEATHER SUCH
AS PRECIPITATION OR FOG.

IAZ001>003-012>014-020>022-031>034-043>046-272200-
   NORTHWEST IOWA

CITY           SKY/WX    TMP DP  RH WIND       PRES   REMARKS
CARROLL *      MOSUNNY   79  52  38 S17       29.93F
CHEROKEE *     SUNNY     78  51  39 S13G22    29.89F
DENISON *      SUNNY     79  59  50 S17       29.93F HX  80
LE MARS *      SUNNY     79  54  41 S18G29    29.86F
ORANGE CITY *  SUNNY     79  52  38 S16G25    29.87F
SHELDON *      SUNNY     79  48  34 S17G26    29.87F
SIOUX CITY     SUNNY     81  59  47 S17G28    29.86F HX  81
SPENCER        SUNNY     80  44  27 S23G29    29.91F
STORM LAKE *   SUNNY     77  50  38 S20G30    29.92F
$$

IAZ055>058-069>071-079>083-090>094-272200-
   SOUTHWEST IOWA

CITY           SKY/WX    TMP DP  RH WIND       PRES   REMARKS
ATLANTIC *     SUNNY     79  59  50 S16G24    29.94F HX  80
AUDUBON *      MOSUNNY   79  59  50 S17G23    29.95F HX  80
CLARINDA *     MOSUNNY   79  63  57 S15G25    29.97F HX  80
COUNCIL BLFS * MOSUNNY   79  63  57 S17G24    29.92F HX  80
CRESTON *      SUNNY     79  57  47 S15G21    29.99F HX  80
HARLAN  *      SUNNY     79  59  50 S15G22    29.96F HX  80
LAMONI         SUNNY     78  58  49 S10G21    29.99F
RED OAK *      MOSUNNY   79  63  57 SE14G23   29.94F HX  80
SHENANDOAH *   MOSUNNY   79  63  57 S15G23    29.94F HX  80
$$

IAZ047>049-059>061-072>074-084-272200-
   CENTRAL IOWA

CITY           SKY/WX    TMP DP  RH WIND       PRES   REMARKS
AMES           SUNNY     75  52  44 S15       29.98F
ANKENY *       SUNNY     77  52  41 S10       30.00F
BOONE *        MOSUNNY   75  48  38 S13G21    29.97F
CHARITON *     SUNNY     79  52  38 S10       30.00F
DES MOINES     PTSUNNY   79  50  36 SE14      29.98F
GRINNELL*      SUNNY     76  41  28 S13       30.03F
KNOXVILLE *    SUNNY     77  50  38 S12G18    30.00F
MARSHALLTOWN   SUNNY     76  45  33 S16       30.00F
NEWTON *       SUNNY     75  48  38 S14G20    30.01F
PELLA *        SUNNY     78  46  31 S10G17    30.03F
PERRY *          N/A     76  47  35 S9        29.97F
$$

IAZ004>006-015-016-023>025-035-036-272200-
   NORTH CENTRAL IOWA

CITY           SKY/WX    TMP DP  RH WIND       PRES   REMARKS
ALGONA *       SUNNY     77  45  31 S21       29.95F
CLARION *        N/A     77  43  29 S18       29.97F
ESTHERVILLE    SUNNY     75  47  36 S24G30    29.92F
FORT DODGE *   SUNNY     79  46  31 SE13G20   29.97F
MASON CITY     SUNNY     76  43  30 S15G22    29.99F
FOREST CITY *    N/A     77  28  16 S12       29.97F
WEBSTER CITY * SUNNY     77  48  36 S15G26    29.95F
IOWA FALLS *     N/A     76  44  31 S15       30.01F
$$

IAZ007>011-017>019-026>030-037>042-050>054-066-272200-
   NORTHEAST IOWA

CITY           SKY/WX    TMP DP  RH WIND       PRES   REMARKS
CEDAR RAPIDS   SUNNY     74  46  36 S14       30.03F
CHARLES CITY * MOSUNNY   75  41  29 S12G21    30.01F
CLINTON *      SUNNY     75  47  36 MISG      30.06F
DECORAH *      SUNNY     72  45  37 VRB8      30.02F
DUBUQUE        SUNNY     73  45  36 SW10      30.06F
MONTICELLO *   SUNNY     75  46  35 S7G16     30.04F
OELWEIN *      SUNNY     73  45  35 S12       30.03F
WATERLOO       MOSUNNY   76  42  29 S15G22    30.00F
$$

IAZ064-065-067-068-078-272200-
   EAST CENTRAL IOWA

CITY           SKY/WX    TMP DP  RH WIND       PRES   REMARKS
IOWA CITY      SUNNY     77  47  34 S12G20    30.05F
MT. PLEASANT * SUNNY     78  42  27 SE9       30.05F
MUSCATINE *    SUNNY     77  41  27 S8G15     30.05F
QUAD CITIES    SUNNY     76  49  38 S9        30.05F
$$

IAZ062-063-075>077-085>089-095>099-272200-
   SOUTHEAST IOWA

CITY           SKY/WX    TMP DP  RH WIND       PRES   REMARKS
BURLINGTON     SUNNY     76  46  34 SE7       30.06F
FAIRFIELD *    SUNNY     79  43  27 S9G17     30.03F
FORT MADISON * SUNNY     77  48  36 S6        30.06F
KEOKUK *       SUNNY     77  48  36 SW12      30.05F
OSKALOOSA *      N/A     77  47  34 S12       30.03F
OTTUMWA        SUNNY     78  48  34 S9        30.02F
WASHINGTON *   SUNNY     77  45  31 S14       30.05F
$$

ABBREVIATIONS USED IN REMARKS
   TC - TEMPERATURES IN CELSIUS
  WCI - WIND CHILL INDEX
   HX - HEAT INDEX
  VSB - VISIBILITY
$$





USA.gov is the U.S. government's official web portal to all federal, state and local government web resources and services.